星链-11232 (STARLINK-11232)

导读

STARLINK-11232是美国太空探索技术公司(SpaceX)星链(Starlink)星座的组网卫星,于2024年8月10日发射入轨。作为星链低轨互联网星座的组成部分,该卫星旨在为全球提供高速宽带互联网服务,支撑星链大规模星座部署,推动全球网络覆盖,同时可服务于科研仿真与轨道分析等领域,是星链计划近地轨道卫星组网建设的重要单元。

Basic Information
目录编号:
60401
目录名称:
STARLINK-11232
国际标识:
2024-141D
轨道中心:
EARTH
卫星名称:
星链-11232 (STARLINK-11232)
卫星全名:
星链-11232 (STARLINK-11232)
卫星状态:
在轨 (已飞行717 天)
发射日期:
2024-08-10 UTC
国别 :
美国 (US)
星等 :
--
Orbit Information
数据来源 国际轨道数据 AOE轨道数据
星历时间 2026-07-27T09:02:30+0800
23小时前
查看轨道信息
2026-07-27T23:00:00+0800
9小时前
查看轨道信息
半长轴 6737.878km 6737.805km
偏心率 0.0001433 0.0000878
轨道倾角 53.157° 53.158°
近地点辐角 150.238° 118.164°
升交点赤经 119.029° 116.166°
平近点角 209.872° 290.482°
近地点 358.775km 359.076km
远地点 360.707km 360.26km
周期 91.737分钟 91.735分钟
每日圈数 15.697053 15.697307
Detailed Information
卫星平台:
Starlink v2.0 mini
运营商:
太空探索技术公司
运营商所在国:
美国
制造商(研发单位):
太空探索技术公司
制造商所在国:
美国
使用方式:
暂无
Satellite Introduction
星链(Starlink)计划是由太空探索技术公司(SpaceX)提出的一个巨型低轨卫星互联网星座项目,计划在2019年至2024年间在太空搭建由约1.2万颗卫星组成的“星链”网络,其中1584颗将部署在地球上空550千米处的近地轨道,并从2020年开始工作。该卫星仍在工作。
2D Orbit Map
3D Orbit Map
Orbit Altitude Analysis Chart
Orbit Inclination Analysis Chart
Orbit Comprehensive Analysis Chart
View Comprehensive Chart